TimeMDT,TemperatureF,Dew PointF,Humidity,Sea Level PressureIn,VisibilityMPH,Wind Direction,Wind SpeedMPH,Gust SpeedMPH,PrecipitationIn,Events,Conditions,WindDirDegrees,DateUTC
12:40 AM,75.2,50.0,41,29.90,10.0,Calm,Calm,-,N/A,,Overcast,0,2012-10-16 06:40:00
2:30 AM,74,55,40,29.86,5,North,2.2,,,,Mostly Cloudy,0,2012-10-16 08:30:00
2:42 AM,75.2,50.0,41,29.87,10.0,Calm,Calm,-,N/A,,Overcast,0,2012-10-16 08:42:00
3:40 AM,71.6,51.8,50,29.88,10.0,Calm,Calm,-,N/A,,Overcast,0,2012-10-16 09:40:00
4:40 AM,73.4,51.8,47,29.86,10.0,Calm,Calm,-,N/A,,Mostly Cloudy,0,2012-10-16 10:40:00
5:30 AM,71,51,39,29.83,5,NE,2.2,,,,Mostly Cloudy,50,2012-10-16 11:30:00
5:42 AM,73.4,53.6,50,29.86,10.0,Calm,Calm,-,N/A,,Overcast,0,2012-10-16 11:42:00
6:40 AM,73.4,53.6,50,29.85,10.0,Calm,Calm,-,N/A,,Overcast,0,2012-10-16 12:40:00
7:41 AM,75.2,51.8,44,29.86,10.0,Calm,Calm,-,N/A,,Overcast,0,2012-10-16 13:41:00
8:35 AM,69,50,40,29.85,7,NE,2.2,,,,Overcast,40,2012-10-16 14:35:00
8:45 AM,77.0,48.2,36,29.85,10.0,East,4.6,-,N/A,,Overcast,80,2012-10-16 14:45:00
9:42 AM,78.8,53.6,42,29.86,10.0,Calm,Calm,-,N/A,,Overcast,0,2012-10-16 15:42:00
10:48 AM,80.6,53.6,39,0.29,10.0,Calm,Calm,-,N/A,,Overcast,0,2012-10-16 16:48:00
11:35 AM,79,56,35,29.85,7,NE,2.2,,,,Overcast,40,2012-10-16 17:35:00
11:45 AM,82.4,53.6,37,29.82,10.0,Calm,Calm,-,N/A,,Overcast,0,2012-10-16 17:45:00
12:48 PM,82.4,53.6,37,29.83,10.0,Calm,Calm,-,N/A,,Overcast,0,2012-10-16 18:48:00
1:43 PM,84.2,53.6,35,29.81,10.0,ESE,6.9,-,N/A,,Overcast,120,2012-10-16 19:43:00
2:43 PM,84.2,53.6,35,29.78,10.0,Calm,Calm,-,N/A,,Overcast,0,2012-10-16 20:43:00
2:45 PM,82,55,29,29.78,7,NE,2.2,,,,Overcast,40,2012-10-16 20:45:00
3:42 PM,84.2,53.6,35,29.80,10.0,ESE,4.6,-,N/A,,Overcast,110,2012-10-16 21:42:00
4:42 PM,84.2,55.4,37,29.79,10.0,ENE,4.6,-,N/A,,Overcast,70,2012-10-16 22:42:00
5:35 PM,82,55,29,29.76,7,NE,2.2,,,Rain,Light Drizzle,40,2012-10-16 23:35:00
5:44 PM,80.6,62.6,54,29.78,10.0,ENE,4.6,-,N/A,,Overcast,70,2012-10-16 23:44:00
6:45 PM,78.8,66.2,65,29.79,10.0,NNE,3.5,-,N/A,,Overcast,20,2012-10-17 00:45:00
7:42 PM,78.8,62.6,57,29.79,10.0,NE,8.1,-,N/A,,Overcast,50,2012-10-17 01:42:00
8:30 PM,77,64,57,29.76,5,NE,2.2,,,,Mostly Cloudy,50,2012-10-17 02:30:00
8:42 PM,80.6,62.6,54,29.78,10.0,NNE,4.6,-,N/A,,Overcast,30,2012-10-17 02:42:00
9:42 PM,80.6,64.4,58,29.79,10.0,Calm,Calm,-,N/A,,Overcast,0,2012-10-17 03:42:00
10:48 PM,78.8,64.4,61,29.79,10.0,North,4.6,-,N/A,,Overcast,10,2012-10-17 04:48:00
11:30 PM,76,63,56,29.75,5,NE,2.2,,,,Mostly Cloudy,50,2012-10-17 05:30:00